TimeEST,TemperatureF,Dew PointF,Humidity,Sea Level PressureIn,VisibilityMPH,Wind Direction,Wind SpeedMPH,Gust SpeedMPH,PrecipitationIn,Events,Conditions,WindDirDegrees,DateUTC
12:34 AM,35.6,30.2,81,29.98,10.0,North,5.8,-,N/A,,Overcast,350,2013-12-02 05:34:00
12:53 AM,36.0,30.0,79,29.99,10.0,North,3.5,-,N/A,,Overcast,350,2013-12-02 05:53:00
1:53 AM,35.1,27.0,72,29.98,10.0,North,5.8,-,N/A,,Overcast,360,2013-12-02 06:53:00
2:53 AM,35.1,27.0,72,29.97,10.0,North,5.8,-,N/A,,Overcast,360,2013-12-02 07:53:00
3:53 AM,34.0,27.0,75,29.97,10.0,NNW,4.6,-,N/A,,Overcast,330,2013-12-02 08:53:00
4:53 AM,34.0,27.0,75,29.97,10.0,North,6.9,-,N/A,,Overcast,350,2013-12-02 09:53:00
5:53 AM,34.0,28.0,79,29.97,10.0,NNW,4.6,-,N/A,,Overcast,330,2013-12-02 10:53:00
6:53 AM,34.0,27.0,75,29.97,10.0,North,5.8,-,N/A,,Overcast,360,2013-12-02 11:53:00
7:53 AM,34.0,26.1,73,29.97,10.0,NNE,5.8,-,N/A,,Overcast,20,2013-12-02 12:53:00
8:53 AM,34.0,26.1,73,29.97,10.0,NNE,5.8,-,N/A,,Overcast,20,2013-12-02 13:53:00
9:53 AM,35.1,24.1,64,29.97,10.0,North,5.8,-,N/A,,Overcast,10,2013-12-02 14:53:00
10:53 AM,36.0,23.0,59,29.97,10.0,NE,4.6,-,N/A,,Overcast,40,2013-12-02 15:53:00
11:53 AM,36.0,21.9,57,29.95,10.0,North,6.9,-,N/A,,Overcast,350,2013-12-02 16:53:00
12:53 PM,37.9,21.9,53,29.93,10.0,Variable,3.5,-,N/A,,Overcast,0,2013-12-02 17:53:00
1:53 PM,37.9,19.0,47,29.91,10.0,Calm,Calm,-,N/A,,Scattered Clouds,0,2013-12-02 18:53:00
2:53 PM,39.0,19.0,45,29.91,10.0,North,4.6,-,N/A,,Mostly Cloudy,360,2013-12-02 19:53:00
3:53 PM,39.0,19.0,45,29.91,10.0,North,5.8,-,N/A,,Partly Cloudy,360,2013-12-02 20:53:00
4:53 PM,35.1,21.0,57,29.92,10.0,Calm,Calm,-,N/A,,Clear,0,2013-12-02 21:53:00
5:53 PM,34.0,21.9,61,29.93,10.0,Calm,Calm,-,N/A,,Clear,0,2013-12-02 22:53:00
6:53 PM,33.1,21.9,64,29.93,10.0,Calm,Calm,-,N/A,,Clear,0,2013-12-02 23:53:00
7:53 PM,33.1,21.9,64,29.92,10.0,NE,3.5,-,N/A,,Clear,40,2013-12-03 00:53:00
8:53 PM,33.1,23.0,66,29.94,10.0,East,3.5,-,N/A,,Clear,100,2013-12-03 01:53:00
9:53 PM,30.9,23.0,72,29.94,10.0,Calm,Calm,-,N/A,,Clear,0,2013-12-03 02:53:00
10:23 PM,32.0,23.0,69,29.92,10.0,Calm,Calm,-,N/A,,Mostly Cloudy,0,2013-12-03 03:23:00
10:53 PM,30.0,23.0,75,29.94,10.0,Calm,Calm,-,N/A,,Overcast,0,2013-12-03 03:53:00
11:14 PM,28.4,21.2,74,29.92,10.0,Calm,Calm,-,N/A,,Scattered Clouds,0,2013-12-03 04:14:00
11:53 PM,28.0,21.9,78,29.94,10.0,Calm,Calm,-,N/A,,Clear,0,2013-12-03 04:53:00